NOZ104 ENBR-ENEV

Flight info

Callsign NOZ104
Flight time 1h 35m
Altitude 37000
Route INTUM DCT PENNO
Aircraft B738/M-SDE2E3GHIJ1LRWXY/LB1

Departure

Time 2026-05-05 01:09
Airport Bergen Airport, Flesland (ENBR)

Arrival

Time 2026-05-05 02:44
Airport Harstad/Narvik Airport (ENEV)
Time Latitude Longitude Altitude Speed Heading
2026-05-05 00:46 60.28444 5.22666 160 ft 0 kts 81°
2026-05-05 00:58 60.28442 5.22636 160 ft 2 kts 80°
2026-05-05 00:58 60.28440 5.22607 160 ft 0 kts 80°
2026-05-05 00:59 60.28439 5.22603 160 ft 2 kts 79°
2026-05-05 00:59 60.28436 5.22571 160 ft 2 kts 79°
2026-05-05 00:59 60.28434 5.22542 160 ft 0 kts 78°
2026-05-05 01:02 60.28434 5.22544 160 ft 0 kts 68°
2026-05-05 01:02 60.28439 5.22550 160 ft 1 kts 40°
2026-05-05 01:03 60.28469 5.22553 162 ft 8 kts 353°
2026-05-05 01:03 60.28528 5.22533 164 ft 9 kts 350°
2026-05-05 01:03 60.28591 5.22513 164 ft 11 kts 351°
2026-05-05 01:03 60.28685 5.22482 165 ft 17 kts 351°
2026-05-05 01:04 60.28793 5.22445 165 ft 15 kts 351°
2026-05-05 01:04 60.29002 5.22374 165 ft 15 kts 350°
2026-05-05 01:04 60.29072 5.22315 164 ft 9 kts 290°
2026-05-05 01:05 60.29113 5.22212 162 ft 10 kts 341°
2026-05-05 01:05 60.29184 5.22192 162 ft 10 kts 352°
2026-05-05 01:05 60.29273 5.22160 161 ft 18 kts 350°
2026-05-05 01:05 60.29421 5.22111 156 ft 21 kts 350°
2026-05-05 01:06 60.29570 5.22061 150 ft 23 kts 350°
2026-05-05 01:06 60.29716 5.22012 147 ft 20 kts 350°
2026-05-05 01:06 60.29850 5.21968 150 ft 19 kts 350°
2026-05-05 01:06 60.29990 5.21920 155 ft 19 kts 351°
2026-05-05 01:07 60.30120 5.21876 162 ft 19 kts 351°
2026-05-05 01:07 60.30270 5.21826 165 ft 23 kts 350°
2026-05-05 01:07 60.30409 5.21780 172 ft 16 kts 351°
2026-05-05 01:07 60.30440 5.21658 172 ft 8 kts 259°
2026-05-05 01:08 60.30422 5.21538 170 ft 10 kts 250°
2026-05-05 01:08 60.30378 5.21465 168 ft 8 kts 172°
2026-05-05 01:08 60.30344 5.21480 166 ft 0 kts 171°
2026-05-05 01:08 60.30215 5.21523 162 ft 54 kts 170°
2026-05-05 01:09 60.29596 5.21732 147 ft 125 kts 171°
2026-05-05 01:09 60.28565 5.22117 327 ft 165 kts 167°
2026-05-05 01:09 60.27440 5.22537 1144 ft 168 kts 171°
2026-05-05 01:09 60.26273 5.22900 1907 ft 174 kts 172°
2026-05-05 01:10 60.24978 5.23291 2392 ft 205 kts 172°
2026-05-05 01:10 60.23458 5.23762 2669 ft 231 kts 172°
2026-05-05 01:10 60.21844 5.24278 3146 ft 247 kts 172°
2026-05-05 01:10 60.20058 5.24863 3632 ft 265 kts 172°
2026-05-05 01:11 60.18203 5.25485 4527 ft 270 kts 172°
2026-05-05 01:11 60.16342 5.26115 5532 ft 272 kts 173°
2026-05-05 01:11 60.14461 5.26752 6458 ft 276 kts 173°
2026-05-05 01:11 60.12559 5.27563 7300 ft 285 kts 161°
2026-05-05 01:12 60.10914 5.29835 8146 ft 294 kts 131°
2026-05-05 01:12 60.09989 5.33498 8944 ft 301 kts 98°
2026-05-05 01:12 60.10027 5.37617 9769 ft 302 kts 77°
2026-05-05 01:12 60.10773 5.41503 10448 ft 300 kts 48°
2026-05-05 01:13 60.12279 5.44275 11169 ft 293 kts 22°
2026-05-05 01:13 60.14216 5.45682 11433 ft 303 kts
2026-05-05 01:13 60.16324 5.45636 12020 ft 305 kts 348°
2026-05-05 01:13 60.18449 5.45203 12795 ft 309 kts 346°
2026-05-05 01:14 60.20595 5.44735 13689 ft 311 kts 346°
2026-05-05 01:14 60.22760 5.44273 14433 ft 316 kts 345°
2026-05-05 01:14 60.24964 5.43818 15099 ft 320 kts 345°
2026-05-05 01:14 60.27201 5.43372 15768 ft 326 kts 344°
2026-05-05 01:15 60.29475 5.42929 16490 ft 330 kts 343°
2026-05-05 01:15 60.31776 5.42479 17214 ft 335 kts 342°
2026-05-05 01:15 60.34108 5.42022 17958 ft 339 kts 341°
2026-05-05 01:15 60.36473 5.41561 18556 ft 344 kts 341°
2026-05-05 01:16 60.38872 5.41096 19184 ft 347 kts 341°
2026-05-05 01:16 60.41289 5.40624 19825 ft 351 kts 341°
2026-05-05 01:16 60.43735 5.40142 20484 ft 354 kts 340°
2026-05-05 01:16 60.46249 5.40053 21043 ft 379 kts 354°
2026-05-05 01:17 60.48893 5.41629 21584 ft 407 kts
2026-05-05 01:17 60.51526 5.43880 22156 ft 415 kts 11°
2026-05-05 01:17 60.54181 5.46285 22671 ft 421 kts 11°
2026-05-05 01:17 60.56778 5.48668 23171 ft 426 kts 11°
2026-05-05 01:18 60.59495 5.51149 23674 ft 430 kts 11°
2026-05-05 01:18 60.62239 5.53630 24142 ft 433 kts 11°
2026-05-05 01:18 60.65001 5.56108 24635 ft 435 kts 11°
2026-05-05 01:18 60.67775 5.58584 25130 ft 437 kts 11°
2026-05-05 01:19 60.70568 5.61070 25591 ft 439 kts 11°
2026-05-05 01:19 60.73377 5.63568 25994 ft 442 kts 11°
2026-05-05 01:19 60.76216 5.66100 26472 ft 445 kts 11°
2026-05-05 01:19 60.79058 5.68641 26893 ft 448 kts 11°
2026-05-05 01:20 60.81925 5.71207 27288 ft 451 kts 11°
2026-05-05 01:20 60.84812 5.73798 27728 ft 454 kts 11°
2026-05-05 01:20 60.87713 5.76408 28137 ft 457 kts 12°
2026-05-05 01:20 60.90630 5.79040 28518 ft 459 kts 12°
2026-05-05 01:21 60.93562 5.81688 28932 ft 461 kts 12°
2026-05-05 01:21 60.96509 5.84354 29331 ft 464 kts 12°
2026-05-05 01:21 60.99452 5.87187 29716 ft 471 kts 15°
2026-05-05 01:21 61.02384 5.90294 30095 ft 476 kts 17°
2026-05-05 01:22 61.05307 5.93539 30422 ft 479 kts 19°
2026-05-05 01:22 61.08240 5.96850 30742 ft 481 kts 19°
2026-05-05 01:22 61.11180 6.00174 31065 ft 483 kts 19°
2026-05-05 01:22 61.14136 6.03498 31341 ft 485 kts 19°
2026-05-05 01:23 61.17107 6.06820 31620 ft 486 kts 20°
2026-05-05 01:23 61.20095 6.10148 31880 ft 488 kts 20°
2026-05-05 01:23 61.23084 6.13470 32191 ft 488 kts 20°
2026-05-05 01:23 61.26070 6.16789 32600 ft 486 kts 20°
2026-05-05 01:24 61.29041 6.20100 33061 ft 483 kts 21°
2026-05-05 01:24 61.31995 6.23398 33433 ft 481 kts 21°
2026-05-05 01:24 61.34947 6.26697 33755 ft 481 kts 21°
2026-05-05 01:24 61.37891 6.29993 34086 ft 481 kts 21°
2026-05-05 01:25 61.40835 6.33298 34408 ft 479 kts 22°
2026-05-05 01:25 61.43762 6.36592 34661 ft 479 kts 22°
2026-05-05 01:25 61.46702 6.39906 34892 ft 479 kts 22°
2026-05-05 01:25 61.49632 6.43216 35157 ft 479 kts 22°
2026-05-05 01:26 61.51574 6.45416 35357 ft 478 kts 22°
2026-05-05 01:26 61.54497 6.48732 35631 ft 477 kts 22°
2026-05-05 01:26 61.57413 6.52048 35881 ft 477 kts 23°
2026-05-05 01:26 61.60337 6.55378 36109 ft 478 kts 23°
2026-05-05 01:27 61.63255 6.58710 36341 ft 478 kts 23°
2026-05-05 01:27 61.66176 6.62053 36584 ft 477 kts 23°
2026-05-05 01:27 61.69087 6.65392 36826 ft 476 kts 23°
2026-05-05 01:27 61.71996 6.68735 36936 ft 478 kts 24°
2026-05-05 01:28 61.77847 6.75478 36972 ft 480 kts 24°
2026-05-05 01:28 61.83692 6.82250 36986 ft 477 kts 24°
2026-05-05 01:29 61.89503 6.89010 36972 ft 477 kts 24°
2026-05-05 01:29 61.95314 6.95800 36972 ft 475 kts 24°
2026-05-05 01:30 62.01100 7.02589 36961 ft 475 kts 24°
2026-05-05 01:30 62.06893 7.09415 36939 ft 476 kts 24°
2026-05-05 01:31 62.12684 7.16269 36915 ft 476 kts 24°
2026-05-05 01:31 62.18478 7.23158 36883 ft 477 kts 24°
2026-05-05 01:32 62.24280 7.30087 36880 ft 478 kts 24°
2026-05-05 01:32 62.30086 7.37051 36889 ft 478 kts 24°
2026-05-05 01:33 62.35901 7.44058 36872 ft 480 kts 25°
2026-05-05 01:33 62.41732 7.51115 36875 ft 481 kts 25°
2026-05-05 01:34 62.47556 7.58197 36872 ft 481 kts 25°
2026-05-05 01:34 62.53386 7.65318 36875 ft 481 kts 25°
2026-05-05 01:35 62.59215 7.72472 36875 ft 481 kts 25°
2026-05-05 01:35 62.65029 7.79637 36869 ft 481 kts 25°
2026-05-05 01:36 62.70838 7.86829 36851 ft 480 kts 25°
2026-05-05 01:36 62.76632 7.94037 36860 ft 479 kts 25°
2026-05-05 01:37 62.82408 8.01254 36848 ft 478 kts 25°
2026-05-05 01:37 62.88138 8.08447 36844 ft 477 kts 25°
2026-05-05 01:38 62.93891 8.15700 36843 ft 477 kts 25°
2026-05-05 01:38 62.99630 8.22969 36835 ft 476 kts 26°
2026-05-05 01:39 63.05364 8.30266 36840 ft 476 kts 26°
2026-05-05 01:39 63.11100 8.37597 36840 ft 476 kts 26°
2026-05-05 01:40 63.16825 8.44950 36833 ft 476 kts 26°
2026-05-05 01:40 63.22551 8.52338 36826 ft 476 kts 26°
2026-05-05 01:41 63.28271 8.59752 36829 ft 476 kts 26°
2026-05-05 01:41 63.33989 8.67198 36820 ft 476 kts 26°
2026-05-05 01:42 63.39699 8.74668 36822 ft 476 kts 26°
2026-05-05 01:42 63.45403 8.82167 36812 ft 476 kts 26°
2026-05-05 01:43 63.51092 8.89680 36812 ft 475 kts 27°
2026-05-05 01:43 63.56793 8.97244 36810 ft 475 kts 27°
2026-05-05 01:44 63.62473 9.04816 36804 ft 474 kts 27°
2026-05-05 01:44 63.68143 9.12409 36802 ft 474 kts 27°
2026-05-05 01:45 63.73814 9.20040 36802 ft 474 kts 27°
2026-05-05 01:45 63.79469 9.27685 36800 ft 474 kts 27°
2026-05-05 01:46 63.85123 9.35366 36803 ft 474 kts 27°
2026-05-05 01:46 63.90765 9.43067 36798 ft 473 kts 27°
2026-05-05 01:47 63.96407 9.50804 36790 ft 473 kts 27°
2026-05-05 01:47 64.02043 9.58569 36790 ft 473 kts 28°
2026-05-05 01:48 64.07678 9.66371 36784 ft 473 kts 28°
2026-05-05 01:48 64.13300 9.74192 36774 ft 473 kts 28°
2026-05-05 01:49 64.18922 9.82052 36769 ft 473 kts 28°
2026-05-05 01:49 64.24534 9.89934 36769 ft 473 kts 28°
2026-05-05 01:50 64.30139 9.97844 36766 ft 472 kts 28°
2026-05-05 01:50 64.35736 10.05782 36767 ft 472 kts 28°
2026-05-05 01:51 64.41323 10.13744 36766 ft 472 kts 28°
2026-05-05 01:51 64.46902 10.21734 36768 ft 471 kts 28°
2026-05-05 01:52 64.52467 10.29740 36763 ft 471 kts 29°
2026-05-05 01:52 64.58027 10.37781 36762 ft 470 kts 29°
2026-05-05 01:53 64.63575 10.45841 36756 ft 470 kts 29°
2026-05-05 01:53 64.69117 10.53933 36749 ft 469 kts 29°
2026-05-05 01:54 64.74646 10.62046 36741 ft 469 kts 29°
2026-05-05 01:54 64.80168 10.70187 36733 ft 469 kts 30°
2026-05-05 01:55 64.85650 10.78311 36730 ft 469 kts 30°
2026-05-05 01:55 64.91160 10.86515 36731 ft 469 kts 30°
2026-05-05 01:56 64.96662 10.94747 36726 ft 469 kts 30°
2026-05-05 01:56 65.02164 11.03021 36728 ft 468 kts 30°
2026-05-05 01:57 65.07657 11.11322 36732 ft 468 kts 30°
2026-05-05 01:57 65.13140 11.19649 36739 ft 468 kts 30°
2026-05-05 01:58 65.18615 11.28006 36734 ft 468 kts 30°
2026-05-05 01:58 65.24086 11.36398 36730 ft 468 kts 30°
2026-05-05 01:59 65.29553 11.44826 36724 ft 467 kts 31°
2026-05-05 01:59 65.35010 11.53280 36713 ft 467 kts 31°
2026-05-05 02:00 65.40465 11.61775 36707 ft 467 kts 31°
2026-05-05 02:00 65.45916 11.70305 36703 ft 467 kts 31°
2026-05-05 02:01 65.51357 11.78864 36700 ft 467 kts 31°
2026-05-05 02:01 65.56798 11.87465 36698 ft 467 kts 31°
2026-05-05 02:02 65.62229 11.96096 36694 ft 467 kts 31°
2026-05-05 02:02 65.67661 12.04771 36693 ft 467 kts 31°
2026-05-05 02:03 65.73084 12.13475 36680 ft 467 kts 31°
2026-05-05 02:03 65.78468 12.22162 36665 ft 467 kts 31°
2026-05-05 02:04 65.83887 12.30950 36668 ft 467 kts 32°
2026-05-05 02:04 65.89293 12.39762 36656 ft 468 kts 32°
2026-05-05 02:05 65.94703 12.48627 36659 ft 468 kts 32°
2026-05-05 02:05 65.99190 12.56014 36680 ft 468 kts 32°
2026-05-05 02:06 66.04591 12.64949 36675 ft 468 kts 32°
2026-05-05 02:06 66.09982 12.73912 36665 ft 468 kts 32°
2026-05-05 02:07 66.15369 12.82916 36665 ft 467 kts 32°
2026-05-05 02:07 66.20748 12.91953 36662 ft 467 kts 32°
2026-05-05 02:08 66.26120 13.01028 36662 ft 467 kts 32°
2026-05-05 02:08 66.31488 13.10141 36651 ft 467 kts 32°
2026-05-05 02:09 66.36842 13.19280 36665 ft 466 kts 33°
2026-05-05 02:09 66.42185 13.28449 36662 ft 466 kts 33°
2026-05-05 02:10 66.47527 13.37663 36660 ft 466 kts 33°
2026-05-05 02:10 66.52857 13.46907 36652 ft 466 kts 33°
2026-05-05 02:11 66.58180 13.56186 36653 ft 465 kts 33°
2026-05-05 02:11 66.62596 13.63922 36647 ft 465 kts 33°
2026-05-05 02:12 66.70550 13.77944 36646 ft 465 kts 33°
2026-05-05 02:13 66.75851 13.87351 36645 ft 465 kts 33°
2026-05-05 02:13 66.81138 13.96785 36639 ft 465 kts 33°
2026-05-05 02:14 66.86436 14.06287 36273 ft 471 kts 33°
2026-05-05 02:14 66.89094 14.11074 35937 ft 465 kts 33°
2026-05-05 02:14 66.91713 14.15807 35656 ft 456 kts 34°
2026-05-05 02:14 66.94274 14.20447 35408 ft 447 kts 34°
2026-05-05 02:15 66.96792 14.25021 35078 ft 442 kts 34°
2026-05-05 02:15 66.99289 14.29567 34680 ft 440 kts 34°
2026-05-05 02:15 67.01772 14.34097 34301 ft 437 kts 34°
2026-05-05 02:15 67.04242 14.38615 33885 ft 435 kts 34°
2026-05-05 02:16 67.06690 14.43104 33457 ft 434 kts 34°
2026-05-05 02:16 67.09139 14.47607 33007 ft 431 kts 34°
2026-05-05 02:16 67.11559 14.52067 32582 ft 428 kts 34°
2026-05-05 02:16 67.13973 14.56529 32184 ft 425 kts 34°
2026-05-05 02:17 67.16364 14.60960 31783 ft 422 kts 34°
2026-05-05 02:17 67.18732 14.65358 31396 ft 419 kts 34°
2026-05-05 02:17 67.21053 14.69680 31020 ft 416 kts 34°
2026-05-05 02:17 67.23420 14.74097 30637 ft 413 kts 34°
2026-05-05 02:18 67.25735 14.78429 30260 ft 410 kts 34°
2026-05-05 02:18 67.28036 14.82744 29888 ft 407 kts 35°
2026-05-05 02:18 67.30319 14.87037 29473 ft 405 kts 35°
2026-05-05 02:18 67.32590 14.91318 29021 ft 401 kts 35°
2026-05-05 02:19 67.34834 14.95557 28626 ft 397 kts 35°
2026-05-05 02:19 67.37020 14.99695 28233 ft 393 kts 35°
2026-05-05 02:19 67.39242 15.03914 27843 ft 388 kts 35°
2026-05-05 02:19 67.41379 15.07981 27472 ft 384 kts 35°
2026-05-05 02:20 67.43525 15.12072 27075 ft 381 kts 35°
2026-05-05 02:20 67.45645 15.16124 26710 ft 376 kts 36°
2026-05-05 02:20 67.47748 15.20151 26320 ft 373 kts 36°
2026-05-05 02:20 67.49830 15.24148 25954 ft 370 kts 36°
2026-05-05 02:21 67.51889 15.28110 25578 ft 367 kts 36°
2026-05-05 02:21 67.53932 15.32050 25211 ft 363 kts 36°
2026-05-05 02:21 67.55959 15.35965 24849 ft 360 kts 36°
2026-05-05 02:21 67.57967 15.39854 24484 ft 357 kts 36°
2026-05-05 02:22 67.59956 15.43714 24117 ft 355 kts 37°
2026-05-05 02:22 67.61929 15.47551 23772 ft 352 kts 37°
2026-05-05 02:22 67.63886 15.51366 23417 ft 349 kts 37°
2026-05-05 02:22 67.65832 15.55166 23035 ft 347 kts 37°
2026-05-05 02:23 67.67759 15.58939 22622 ft 344 kts 37°
2026-05-05 02:23 67.69667 15.62681 22269 ft 340 kts 37°
2026-05-05 02:23 67.71548 15.66378 21911 ft 336 kts 37°
2026-05-05 02:23 67.73410 15.70044 21563 ft 332 kts 37°
2026-05-05 02:24 67.75251 15.73678 21230 ft 329 kts 37°
2026-05-05 02:24 67.77071 15.77277 20877 ft 326 kts 38°
2026-05-05 02:24 67.78874 15.80851 20547 ft 322 kts 38°
2026-05-05 02:24 67.80662 15.84400 20201 ft 320 kts 38°
2026-05-05 02:25 67.82431 15.87919 19865 ft 317 kts 38°
2026-05-05 02:25 67.84188 15.91421 19527 ft 315 kts 38°
2026-05-05 02:25 67.85931 15.94902 19204 ft 313 kts 38°
2026-05-05 02:25 67.87660 15.98359 18871 ft 310 kts 38°
2026-05-05 02:26 67.89379 16.01803 18558 ft 309 kts 38°
2026-05-05 02:26 67.91082 16.05226 18236 ft 307 kts 38°
2026-05-05 02:26 67.92782 16.08626 17919 ft 305 kts 36°
2026-05-05 02:26 67.94699 16.10959 17560 ft 305 kts 14°
2026-05-05 02:27 67.96767 16.12084 17238 ft 302 kts 12°
2026-05-05 02:27 67.98801 16.13063 16928 ft 300 kts 11°
2026-05-05 02:27 68.00845 16.14026 16594 ft 297 kts 11°
2026-05-05 02:27 68.02872 16.14990 16302 ft 295 kts 11°
2026-05-05 02:28 68.04883 16.15962 15992 ft 292 kts 11°
2026-05-05 02:28 68.06878 16.16938 15671 ft 290 kts 11°
2026-05-05 02:28 68.08860 16.17917 15364 ft 289 kts 11°
2026-05-05 02:28 68.10827 16.18896 15059 ft 286 kts 12°
2026-05-05 02:29 68.12780 16.19873 14755 ft 285 kts 11°
2026-05-05 02:29 68.14721 16.20848 14454 ft 283 kts 11°
2026-05-05 02:29 68.16415 16.21701 14194 ft 282 kts 11°
2026-05-05 02:29 68.18340 16.22672 13891 ft 280 kts 11°
2026-05-05 02:30 68.20252 16.23639 13595 ft 279 kts 11°
2026-05-05 02:30 68.22156 16.24604 13281 ft 278 kts 11°
2026-05-05 02:30 68.24050 16.25566 12954 ft 276 kts 11°
2026-05-05 02:30 68.25935 16.26525 12648 ft 274 kts 11°
2026-05-05 02:31 68.27803 16.27476 12345 ft 272 kts 11°
2026-05-05 02:31 68.29657 16.28422 12049 ft 271 kts 11°
2026-05-05 02:31 68.31515 16.29371 11755 ft 274 kts 11°
2026-05-05 02:31 68.33403 16.30338 11458 ft 278 kts 11°
2026-05-05 02:32 68.35313 16.31317 11154 ft 282 kts 11°
2026-05-05 02:32 68.37247 16.32310 10832 ft 282 kts 11°
2026-05-05 02:32 68.39165 16.33297 10527 ft 280 kts 11°
2026-05-05 02:32 68.41087 16.34065 10196 ft 279 kts
2026-05-05 02:33 68.43024 16.34132 9876 ft 278 kts 359°
2026-05-05 02:33 68.44940 16.34000 9671 ft 272 kts 358°
2026-05-05 02:33 68.46781 16.33857 9544 ft 265 kts 358°
2026-05-05 02:33 68.48620 16.33734 9226 ft 264 kts 359°
2026-05-05 02:34 68.50454 16.33634 8944 ft 262 kts 359°
2026-05-05 02:34 68.52268 16.33551 8669 ft 260 kts 359°
2026-05-05 02:34 68.54072 16.33481 8398 ft 258 kts 359°
2026-05-05 02:34 68.55866 16.33418 8111 ft 257 kts 359°
2026-05-05 02:35 68.57647 16.33360 7831 ft 256 kts 359°
2026-05-05 02:35 68.59422 16.33304 7566 ft 254 kts 359°
2026-05-05 02:35 68.61182 16.33251 7311 ft 252 kts 359°
2026-05-05 02:35 68.62937 16.33200 7064 ft 252 kts 359°
2026-05-05 02:36 68.64702 16.33148 6807 ft 255 kts 359°
2026-05-05 02:36 68.66484 16.33096 6555 ft 257 kts 359°
2026-05-05 02:36 68.68277 16.33044 6306 ft 257 kts 359°
2026-05-05 02:36 68.70055 16.32993 6077 ft 255 kts 359°
2026-05-05 02:37 68.71803 16.33485 5998 ft 253 kts 19°
2026-05-05 02:37 68.73233 16.36102 5975 ft 244 kts 48°
2026-05-05 02:37 68.74029 16.40092 5744 ft 235 kts 73°
2026-05-05 02:37 68.74259 16.44438 5571 ft 225 kts 86°
2026-05-05 02:38 68.74321 16.48670 5434 ft 217 kts 87°
2026-05-05 02:38 68.74370 16.52791 5274 ft 213 kts 87°
2026-05-05 02:38 68.74424 16.56806 5092 ft 206 kts 86°
2026-05-05 02:38 68.74269 16.60593 4873 ft 197 kts 117°
2026-05-05 02:39 68.73292 16.62933 4788 ft 189 kts 163°
2026-05-05 02:39 68.71997 16.63837 4673 ft 196 kts 167°
2026-05-05 02:39 68.70650 16.64596 4489 ft 198 kts 171°
2026-05-05 02:39 68.69301 16.65225 4324 ft 195 kts 173°
2026-05-05 02:40 68.67963 16.65598 4160 ft 192 kts 177°
2026-05-05 02:40 68.66628 16.65804 4042 ft 192 kts 179°
2026-05-05 02:40 68.65292 16.65964 3939 ft 194 kts 179°
2026-05-05 02:40 68.63940 16.66118 3643 ft 195 kts 179°
2026-05-05 02:41 68.62593 16.66272 3283 ft 190 kts 179°
2026-05-05 02:41 68.61298 16.66421 2963 ft 182 kts 179°
2026-05-05 02:41 68.60061 16.66562 2642 ft 174 kts 180°
2026-05-05 02:41 68.58874 16.66697 2330 ft 167 kts 180°
2026-05-05 02:42 68.57737 16.66827 2036 ft 160 kts 179°
2026-05-05 02:42 68.56638 16.66953 1779 ft 154 kts 179°
2026-05-05 02:42 68.55604 16.67072 1466 ft 145 kts 179°
2026-05-05 02:42 68.54606 16.67185 1205 ft 143 kts 179°
2026-05-05 02:43 68.53611 16.67298 947 ft 144 kts 178°
2026-05-05 02:43 68.52605 16.67422 676 ft 144 kts 177°
2026-05-05 02:43 68.51623 16.67566 391 ft 139 kts 179°
2026-05-05 02:43 68.50670 16.67648 183 ft 136 kts 179°
2026-05-05 02:44 68.49949 16.67733 88 ft 132 kts 178°
2026-05-05 02:44 68.49183 16.67810 94 ft 77 kts 178°
2026-05-05 02:44 68.48967 16.67833 95 ft 9 kts 177°
2026-05-05 02:44 68.48887 16.67908 93 ft 10 kts 101°
2026-05-05 02:45 68.48887 16.68014 90 ft 7 kts 89°
2026-05-05 02:45 68.48891 16.68185 90 ft 9 kts 71°
2026-05-05 02:45 68.48926 16.68301 93 ft 7 kts 43°
2026-05-05 02:45 68.48944 16.68346 89 ft 3 kts 43°
2026-05-05 02:46 68.48959 16.68385 91 ft 3 kts 42°
2026-05-05 02:46 68.48971 16.68415 93 ft 2 kts 42°
2026-05-05 02:46 68.48973 16.68419 94 ft 0 kts 42°